Lapse_Rate
4.5 4.5 4.4 4.7 4.7 4.8 4.8 4.9 4.9 5.0 5.2 5.2 5.2 5.3 5.4 5.5 5.4 5.2 5.1 5.0 5.1 5.3 5.4 5.3 5.2 5.3 5.4 5.5 5.8 5.7 5.6 5.4 5.3 5.2 5.1 5.1 5.2 5.4 5.1 5.1 5.3 5.4 5.3
4.7 4.5 4.4 4.8 5.0 5.1 5.2 5.2 5.3 5.3 5.3 5.3 5.3 5.4 5.4 5.4 5.4 5.4 5.1 4.8 4.7 4.6 4.8 5.0 5.3 5.2 5.3 5.3 5.4 5.6 5.6 5.4 5.0 5.1 5.2 5.3 5.1 5.1 5.4 5.3 5.3 5.2 5.0
4.6 4.8 5.0 5.1 5.2 5.2 5.2 5.2 5.2 5.2 5.3 5.3 5.3 5.3 5.1 5.1 5.2 5.1 5.0 4.9 4.7 4.6 4.4 4.3 4.5 5.0 4.9 5.0 5.2 5.4 5.6 5.3 5.1 4.8 4.9 5.2 5.2 4.9 5.0 5.2 5.1 5.3 5.2
4.8 4.7 4.9 5.1 5.1 5.0 5.0 4.9 4.9 4.9 4.8 4.7 4.7 4.6 4.6 4.5 4.6 4.6 4.7 4.7 4.7 4.7 4.7 4.7 4.6 4.4 4.7 4.8 4.7 4.9 5.2 5.3 5.3 5.1 4.7 5.0 5.1 4.9 4.8 5.0 4.9 5.2 5.4
4.9 4.9 4.9 4.9 4.9 5.0 5.0 5.0 4.9 4.6 4.5 4.4 4.4 4.5 4.5 4.5 4.5 4.5 4.6 4.5 4.5 4.5 4.6 4.6 4.7 4.6 4.6 4.5 4.6 4.4 4.6 4.8 5.1 5.0 5.2 5.0 5.1 5.2 4.7 4.8 5.0 4.8 5.0
5.2 5.1 4.9 4.9 4.9 4.9 4.8 4.7 4.6 4.6 4.5 4.6 4.7 4.6 4.5 4.5 4.6 4.6 4.5 4.4 4.3 4.3 4.2 4.2 4.4 4.4 4.5 4.5 4.6 4.8 4.4 4.5 4.6 5.1 5.1 5.2 5.2 5.2 5.0 4.7 4.8 5.0 4.8
5.4 5.3 5.0 4.9 4.9 4.9 4.7 4.6 4.6 4.7 4.8 4.8 4.8 4.8 4.9 4.9 4.8 4.7 4.6 4.5 4.3 4.3 4.1 4.0 3.9 3.9 4.2 4.0 4.3 4.4 4.7 4.6 4.4 4.9 5.1 4.9 4.7 4.7 4.9 4.9 4.7 4.7 5.0
5.0 4.9 4.8 4.7 4.6 4.7 4.8 4.8 4.9 4.9 4.9 5.0 5.1 5.3 5.4 5.4 5.4 5.3 5.2 5.1 4.8 4.5 4.3 4.2 4.1 3.8 3.6 3.8 3.9 4.0 4.1 4.5 4.6 4.5 4.7 4.8 4.7 4.6 4.6 4.5 4.8 4.6 4.8
5.0 4.9 4.7 4.6 4.6 4.8 5.0 5.1 5.2 5.3 5.4 5.6 5.7 5.8 5.9 6.0 6.1 6.1 6.0 5.8 5.8 5.6 5.1 4.9 4.7 4.5 4.1 3.8 3.8 3.8 3.8 4.1 4.4 4.6 4.2 4.5 4.8 4.6 4.5 4.4 4.3 4.7 4.7
4.9 4.6 4.6 4.9 5.1 5.3 5.5 5.7 6.0 6.2 6.2 6.2 6.1 6.2 6.1 6.0 6.0 5.9 6.0 6.0 6.1 6.1 6.1 6.0 5.8 5.6 5.1 4.8 4.2 4.0 3.8 3.8 3.9 4.2 4.3 4.3 4.7 4.9 4.7 4.5 4.2 4.1 4.7
4.2 4.5 4.7 4.9 5.2 5.8 6.3 6.4 6.5 6.4 6.4 6.3 6.1 6.0 5.8 5.8 5.8 5.7 5.7 5.6 5.7 5.7 5.8 5.8 5.8 5.8 5.8 5.8 5.5 4.8 4.5 4.3 4.1 3.9 4.1 4.4 4.2 4.4 4.7 4.8 4.8 4.2 4.1
4.5 4.8 5.3 5.8 6.2 6.4 6.4 6.3 6.4 6.2 6.2 6.1 5.9 5.8 5.7 5.7 5.7 5.8 5.8 5.7 5.7 5.7 5.7 5.7 5.6 5.5 5.5 5.6 5.6 5.6 5.5 5.2 4.9 4.4 4.2 4.3 4.2 4.1 4.3 4.5 4.7 4.8 4.4
5.3 5.8 6.0 6.2 6.4 6.3 6.3 6.2 6.2 6.1 6.0 5.8 5.7 5.8 5.8 5.8 5.8 5.7 5.7 5.7 5.8 5.8 5.8 5.6 5.5 5.3 5.3 5.2 5.2 5.3 5.4 5.4 5.4 5.3 5.1 4.7 4.5 4.2 4.1 4.2 4.4 4.8 4.7
6.0 6.0 6.1 6.3 6.2 6.2 6.2 6.1 6.1 6.0 5.9 5.8 5.8 5.8 5.9 5.9 5.9 5.8 5.9 6.0 6.1 6.1 6.0 5.9 5.8 5.7 5.5 5.1 4.8 4.7 4.9 5.0 5.1 5.3 5.6 5.3 5.2 4.8 4.3 4.1 4.1 4.4 4.8
6.1 6.3 6.3 6.3 6.2 6.1 6.0 6.0 5.9 5.9 5.9 5.8 5.9 5.9 5.9 5.9 6.0 6.1 6.1 6.0 6.0 5.8 5.5 5.2 5.3 5.3 5.4 5.2 5.0 4.6 4.3 4.4 4.6 4.8 5.2 5.5 5.5 5.5 5.3 4.5 4.2 4.1 4.4
6.1 6.2 6.2 6.2 6.1 6.1 6.0 5.9 6.0 5.9 5.9 5.9 5.9 5.9 6.0 6.1 6.1 5.9 5.8 5.6 5.6 5.5 5.4 5.7 6.0 6.3 6.2 6.1 5.8 5.2 4.6 4.3 4.3 4.3 4.5 5.1 5.3 5.7 5.7 5.5 4.9 4.5 4.5
6.1 6.1 6.1 6.1 6.1 6.0 5.9 5.9 5.9 5.9 5.9 5.9 5.9 6.0 6.0 5.9 5.8 5.7 5.6 5.6 5.3 5.4 5.7 6.0 6.2 6.2 6.1 5.7 5.7 5.5 5.2 4.6 4.3 4.3 4.1 4.4 4.9 5.3 5.9 5.9 5.7 5.2 4.9
6.2 6.2 6.2 6.1 6.0 5.9 5.8 5.8 5.9 6.0 6.0 6.0 6.0 5.8 5.8 5.6 5.4 5.5 5.8 5.5 5.3 5.8 6.2 6.3 6.5 6.8 6.7 6.6 6.5 6.1 5.3 4.8 4.6 4.4 4.3 3.9 4.4 4.9 5.3 5.9 5.9 5.8 5.7
6.1 6.2 6.1 6.0 5.9 5.8 5.8 5.9 5.9 6.1 5.9 5.9 5.7 5.7 5.4 5.3 5.3 5.6 5.5 5.2 5.4 6.0 6.2 6.3 6.5 6.7 6.5 6.2 6.2 6.3 6.1 5.4 4.6 4.5 4.6 4.2 4.1 4.5 4.9 5.4 5.9 5.8 5.8
6.2 6.1 6.1 6.0 5.9 5.8 5.8 5.8 6.0 6.0 5.8 5.5 5.5 5.4 5.5 5.4 5.4 5.4 5.1 5.1 5.3 5.8 6.1 6.1 6.1 6.1 6.1 6.3 6.4 6.6 6.3 5.8 5.3 4.4 4.3 4.4 4.5 4.5 4.9 5.1 5.6 5.8 5.6
6.2 6.2 6.0 6.0 5.9 5.8 5.8 5.9 5.9 6.0 5.6 5.3 5.3 5.5 5.4 5.3 5.3 5.2 4.9 4.9 5.1 5.6 6.0 5.9 5.8 5.9 5.7 5.9 6.3 6.9 6.7 5.9 5.6 5.0 4.6 4.2 4.4 4.8 5.1 5.3 5.4 5.6 5.4
6.1 6.1 6.1 6.0 6.0 5.9 5.9 6.0 6.0 5.9 5.6 5.3 5.3 5.5 5.6 5.5 5.3 5.0 4.8 4.7 4.9 5.3 5.7 5.6 5.5 5.9 5.9 5.8 5.9 6.6 7.1 6.5 5.9 5.5 5.4 4.8 4.8 4.9 5.3 5.6 5.7 5.5 5.3
6.2 6.2 6.1 5.9 6.0 5.9 5.8 5.8 5.7 5.6 5.3 5.2 5.4 5.7 5.8 5.6 5.4 5.1 4.9 4.8 4.6 4.9 5.5 5.5 5.4 5.6 6.0 6.1 5.6 5.7 6.1 6.3 6.4 5.8 5.8 5.3 5.1 5.4 5.5 5.7 5.8 5.7 5.2
6.1 6.0 5.9 5.9 6.0 5.9 5.9 5.9 5.9 5.9 5.8 5.7 5.7 5.6 5.6 5.5 5.4 5.1 4.9 4.8 4.8 4.9 5.1 5.3 5.3 5.4 5.8 6.1 6.0 5.6 5.8 5.9 6.0 6.5 6.1 5.7 5.2 5.1 5.0 5.2 5.3 5.4 5.4
6.0 5.9 5.9 5.9 5.9 6.0 5.9 5.8 5.8 5.8 5.8 5.7 5.7 5.5 5.4 5.4 5.4 5.2 4.9 4.9 4.9 5.0 4.9 5.1 5.3 5.6 5.7 5.8 5.8 6.0 5.9 5.8 6.1 6.1 6.4 6.4 5.9 5.5 5.8 5.7 5.2 5.3 5.3
6.1 6.0 6.0 5.8 5.8 5.9 5.9 5.8 5.9 5.8 5.8 5.8 5.7 5.7 5.6 5.5 5.4 5.3 5.1 5.0 4.9 5.0 5.1 5.1 5.3 5.7 5.8 5.8 5.6 5.8 5.9 5.8 5.9 6.1 6.4 6.4 6.3 6.1 6.1 6.0 5.9 5.6 5.5
Wind_Speed
6 12 13 13 15 16 18 19 19 19 18 16 16 19 19 18 18 19 20 21 20 22 20 19 22 20 20 19 20 19 17 16 17 18 20 21 19 17 15 11 8 6 5
5 12 16 15 16 17 18 18 18 17 16 16 16 17 19 18 20 21 21 20 19 19 21 22 20 20 20 20 20 19 18 19 15 17 17 17 16 18 16 15 13 9 9
11 13 13 14 15 17 18 18 16 16 15 17 15 16 16 17 18 18 18 19 20 19 18 20 20 20 18 20 19 20 20 19 20 17 17 12 13 16 16 16 16 12 11
11 13 14 15 16 16 16 15 15 16 16 15 15 16 17 18 18 19 20 20 19 19 19 19 20 19 21 21 19 19 19 20 20 20 17 11 11 15 15 17 17 16 13
13 14 15 15 16 16 16 15 13 14 14 14 14 15 16 16 16 18 19 18 18 18 20 19 19 20 22 21 21 20 19 20 21 19 16 15 13 13 15 16 16 16 15
11 14 15 15 16 16 15 15 14 13 12 13 13 14 16 18 18 19 19 18 17 19 19 19 19 19 20 20 21 18 19 19 18 17 18 16 17 15 17 17 17 16 15
9 12 14 16 16 15 15 14 14 14 14 14 14 15 17 18 19 18 16 17 16 17 20 20 19 20 19 20 23 22 19 21 19 16 16 17 15 20 19 19 18 17 17
9 11 12 14 16 15 15 14 13 13 14 14 16 17 17 18 18 17 17 17 19 20 20 20 20 19 21 21 19 23 22 20 20 17 18 17 18 21 21 20 19 19 19
8 10 11 11 13 14 15 14 13 14 14 15 16 16 16 17 18 18 18 18 20 21 20 20 20 19 22 22 22 22 23 24 21 17 19 16 17 21 23 22 21 21 20
9 11 10 11 12 11 12 14 14 14 15 15 15 16 16 15 17 16 17 19 20 21 21 20 20 20 19 21 23 23 22 21 16 19 18 16 19 21 24 24 24 23 22
7 9 9 12 12 11 10 12 11 12 15 13 13 15 14 14 15 15 16 19 19 21 20 19 20 20 20 20 19 21 22 14 16 15 16 19 22 21 23 23 24 25 26
6 7 8 10 10 9 10 10 10 12 12 11 11 13 14 14 15 16 15 17 18 18 18 19 19 19 16 15 16 17 14 17 17 16 16 20 24 24 23 23 23 25 26
4 5 7 9 8 8 8 8 9 10 11 11 12 12 13 13 13 14 14 15 15 16 14 15 16 14 17 16 15 16 17 18 16 17 18 20 23 25 24 23 25 26 28
4 5 6 7 8 7 8 8 7 9 11 11 11 12 12 13 15 16 14 14 13 13 15 14 13 15 16 16 16 16 19 17 17 18 20 22 22 23 24 24 24 25 26
5 5 5 6 7 7 8 8 8 9 9 11 12 13 14 14 14 16 16 15 14 14 14 14 14 15 14 15 17 17 16 17 19 19 19 23 22 22 24 24 24 24 26
4 5 6 5 7 7 7 9 9 9 10 12 13 14 15 15 14 15 15 15 15 15 15 14 13 12 12 16 15 16 17 17 18 19 19 21 23 22 22 24 24 23 25
4 5 6 6 7 8 9 10 10 10 11 11 11 13 13 14 15 15 14 14 14 15 16 15 13 13 10 15 12 15 16 17 18 18 18 19 20 20 22 24 25 24 23
3 5 5 6 7 9 10 10 9 9 8 9 10 11 13 14 14 13 12 12 15 14 14 12 9 9 10 10 11 11 10 15 18 19 19 18 18 19 19 22 25 24 24
3 4 5 6 7 8 9 8 7 9 7 9 11 12 14 13 14 12 10 12 15 12 11 9 9 9 10 10 10 11 11 11 13 15 15 16 17 20 19 19 22 23 24
2 3 3 4 6 8 7 7 8 8 8 9 10 11 12 13 14 13 11 13 14 10 7 8 8 9 10 9 10 12 11 12 9 9 9 12 17 19 18 17 16 16 21
0 3 4 5 6 4 4 4 5 5 5 8 12 14 13 13 13 14 13 14 14 8 9 8 7 9 8 10 8 9 8 11 10 6 7 8 12 12 14 13 13 13 14
3 3 3 3 4 3 3 2 2 3 3 5 9 11 13 15 15 13 13 12 15 8 10 9 8 6 5 8 4 8 5 7 3 12 7 9 11 7 6 10 12 12 12
3 3 3 4 3 3 4 3 4 3 3 3 7 7 12 13 13 13 14 13 13 11 7 9 8 8 6 7 7 4 3 3 7 3 8 9 11 6 5 5 8 7 6
2 3 3 3 3 3 4 3 3 3 4 3 5 7 11 13 12 13 12 12 13 12 9 8 9 9 7 6 6 3 4 6 3 5 5 7 10 8 8 5 5 3 2
2 2 3 2 2 3 2 3 3 4 4 4 5 8 8 11 12 12 13 12 11 11 12 10 10 10 7 7 6 6 4 5 3 4 6 8 7 7 8 6 6 5 5
3 1 2 2 2 3 3 3 4 5 6 6 7 6 6 6 9 12 14 12 11 11 10 10 9 9 8 8 7 8 6 3 4 4 3 4 5 5 6 9 9 8 9
Wind_Direction
13 353 1 9 6 360 357 353 349 346 350 358 358 359 356 2 354 354 359 353 351 347 350 346 333 332 332 333 332 327 327 321 325 336 344 352 353 347 343 325 318 297 313
14 9 12 11 2 359 354 350 345 342 354 3 1 0 360 354 350 354 354 349 347 345 341 338 342 341 328 328 323 328 323 318 317 317 332 344 349 347 340 334 324 294 286
29 14 8 10 3 357 355 349 346 339 351 349 346 4 358 353 354 353 350 349 348 347 346 339 335 336 336 326 325 325 324 321 312 312 314 328 341 338 336 334 326 315 281
27 14 4 10 5 360 353 351 352 351 354 357 1 356 357 360 358 357 353 351 348 351 342 344 338 332 334 338 330 320 318 320 323 321 315 319 322 322 324 324 322 320 324
32 20 11 11 6 0 358 356 356 358 360 354 4 1 356 359 360 351 350 344 348 346 342 347 345 341 331 329 334 331 331 318 319 342 327 316 314 305 310 315 315 313 306
39 27 17 15 9 8 9 11 7 5 0 5 3 4 356 357 354 348 347 340 346 339 343 341 341 339 337 321 326 333 328 335 336 351 337 323 317 304 297 300 305 308 309
49 36 27 19 17 16 12 13 10 8 12 8 5 5 357 356 351 349 344 349 344 341 339 341 338 333 339 330 322 319 328 332 334 340 334 333 320 307 292 286 292 299 301
46 33 29 22 19 15 12 11 11 8 13 15 9 357 1 360 355 354 353 351 345 344 339 336 329 335 331 326 332 325 316 330 326 331 327 325 313 309 297 286 282 286 293
51 39 26 21 16 15 13 17 20 23 20 11 7 2 4 3 358 351 350 344 344 343 339 335 333 333 327 325 327 328 319 319 320 317 313 302 306 307 291 289 283 280 282
43 34 25 19 13 15 21 20 17 19 12 12 10 7 4 1 357 350 348 340 343 343 337 341 334 324 327 327 327 320 319 317 313 307 294 292 301 298 294 280 283 280 278
34 29 26 18 16 15 24 14 17 12 10 10 7 5 3 1 -0 1 354 349 346 345 347 340 339 329 333 325 318 319 321 310 307 303 296 293 297 295 294 287 280 285 279
20 15 20 17 16 11 11 6 14 7 6 7 4 5 6 0 358 358 353 350 347 344 343 341 339 336 332 323 318 317 312 309 304 300 295 297 297 293 289 283 283 280 279
4 13 9 5 5 11 3 3 9 8 11 6 8 5 1 359 355 353 348 345 342 340 339 337 337 332 329 321 316 313 307 305 301 299 296 298 298 291 287 282 278 275 271
15 10 1 5 4 4 0 4 357 5 8 8 357 355 350 348 348 348 342 337 335 338 332 331 328 324 321 317 310 308 303 298 298 297 294 298 297 291 284 279 277 279 273
15 359 2 359 8 1 359 351 349 352 354 347 344 341 344 340 336 335 334 332 332 333 330 327 323 320 319 318 316 303 301 295 295 292 293 294 294 291 282 274 273 275 278
352 357 349 359 8 355 354 351 351 345 343 340 335 335 335 334 332 333 334 333 334 333 327 322 318 317 317 319 315 308 299 294 292 285 287 290 291 287 285 274 271 274 278
352 341 352 346 0 356 352 353 353 355 349 344 342 340 342 341 339 337 334 333 333 332 328 323 317 314 316 318 314 311 302 293 292 287 283 285 287 285 284 275 270 271 275
349 345 335 345 350 357 357 351 352 352 353 354 350 347 348 344 342 337 335 329 331 325 323 327 325 323 319 313 315 310 304 305 298 292 286 283 284 283 282 275 270 271 276
344 333 341 350 358 352 350 353 356 359 357 354 355 353 351 346 344 338 325 325 330 322 320 331 324 317 317 314 313 313 307 306 293 294 290 287 290 279 272 270 269 272 279
319 332 325 349 357 351 350 355 0 360 356 356 356 353 349 348 347 337 328 329 332 331 328 331 320 316 314 310 317 310 303 303 293 289 286 292 299 284 264 261 266 273 277
244 333 353 342 348 350 356 354 352 345 339 346 356 351 351 345 348 347 342 341 329 331 327 319 316 311 312 326 304 306 303 297 307 299 311 296 303 289 261 255 258 268 274
308 310 322 340 340 359 355 346 310 315 317 322 338 349 356 354 353 349 347 335 340 325 326 328 317 311 295 320 303 305 317 330 344 315 336 329 321 311 262 257 260 263 268
272 296 322 330 339 0 356 341 340 339 322 332 350 346 346 348 350 352 354 351 346 339 321 330 317 308 311 326 314 313 322 317 324 304 335 341 336 339 339 296 267 268 251
268 294 299 331 349 356 354 354 5 350 342 328 325 329 340 352 348 350 348 347 349 348 335 327 335 335 336 324 323 301 298 300 319 314 325 337 334 354 359 347 335 353 117
242 294 330 323 325 346 344 357 347 341 323 319 328 337 346 343 348 350 350 347 349 351 347 342 338 339 341 334 337 326 302 326 299 313 325 339 337 350 13 4 10 7 38
223 239 257 326 328 340 328 341 338 326 330 334 339 338 342 340 341 350 349 349 339 345 351 347 345 339 346 347 343 333 330 309 313 326 320 325 324 320 7 30 27 13 26